Regional Weather Roundup
Issued by NWS Newport/Morehead, NC

Current Version | Previous Version | Graphics & Text | Print | Product List | Glossary Off
Versions: 1 2 3 4 5 6 7 8 9 10 11 12 13 14 15 16 17 18 19 20 21 22 23 24 25 26 27 28 29 30 31 32 33 34 35 36 37 38 39 40 41 42 43 44 45 46 47 48 49 50

701
ASUS42 KMHX 242325
RWRMHX
WEATHER ROUNDUP FOR EASTERN NORTH CAROLINA
NATIONAL WEATHER SERVICE NEWPORT/MOREHEAD CITY NC
700 PM EDT SUN JUL 24 2016

NOTE: "FAIR" INDICATES FEW OR NO CLOUDS BELOW 12,000 FEET
WITH NO SIGNIFICANT WEATHER AND/OR OBSTRUCTIONS TO VISIBILITY

NCZ015>017-031-032-045>047-102-103-250000-
NORTH COAST

CITY           SKY/WX    TMP DP  RH WIND       PRES   REMARKS
EDENTON        SUNNY     93  72  49 SW6       29.99R HX 101
ELIZABETH CITY SUNNY     90  75  61 S7        29.97S HX 100
KITTY HAWK     PTCLDY    90  77  64 S5        29.98R HX 103
MANTEO           N/A     88  80  77 SW15      29.99R HX 105

$$

NCZ045>047-081-094-103-104-250000-
CENTRAL COAST

CITY           SKY/WX    TMP DP  RH WIND       PRES   REMARKS
FRISCO         SUNNY     86  78  77 SW8       30.02S

$$

NCZ095-097-098-100-101-250000-
SOUTHERN COAST

CITY           SKY/WX    TMP DP  RH WIND       PRES   REMARKS
BEAUFORT       SUNNY     85  77  77 SW15      30.02S
CEDAR ISLAND   NOT AVBL
JACKSONVILLE   SUNNY     87  74  64 S7        30.01R
PINEY ISLAND   NOT AVBL
WILMINGTON     SUNNY     87  75  67 S7        30.01S


$$

NCZ011>013-027>030-043-044-078>080-089-090>093-098-250000-
COASTAL PLAIN

CITY           SKY/WX    TMP DP  RH WIND       PRES   REMARKS
AHOSKIE        SUNNY     87  80  81 CALM      29.99R HX 103
CLINTON        SUNNY     92  79  65 CALM      29.99S HX 107
ELIZABETHTOWN  SUNNY     90  76  62 S5        30.00S HX 101
GOLDSBORO      SUNNY     94  71  46 S6        29.97S HX 101
GREENVILLE     SUNNY     91  75  59 SW6       30.00S HX 102
HAVELOCK       SUNNY     86  74  67 S12       30.02S
KENANSVILLE    NOT AVBL
KINSTON        SUNNY     93  72  49 S6        29.99S HX 100
NEW BERN       SUNNY     88  75  65 S8        30.01S
RICHLANDS      SUNNY     88  77  69 S10       30.01R HX 100
ROCKY MOUNT    SUNNY     91  77  63 SW5       29.99S HX 104
WASHINGTON     SUNNY     91  74  57 SW5       29.98S HX 100
WHITEVILLE     SUNNY     87  75  67 S5        30.00S

$$

AMZ130-135-150-152-154-156-158-170-250-252-270-ANZ085-086-088-633-658-670-250000-
MARINE OBSERVATIONS

STATION/POSITION TIME  TEMP    WIND        PRES    WAVE   SWELL
                       AIR SEA DIR/SP/G            HT/PER HT/PER
                 (UTC) (F)     (DEG/KT/KT) (MB)    (FT/S) (FT/S)
CHESAPEAKE LIGHT NOT AVBL
64 E VA BEACH    2250   83 81  200/ 12/ 14 1015.2    2/ 8   2/ 8
DUCK             2200   85 66                N/A
2 E DUCK         2311      79                N/A     1/ 9
OREGON INLET     2200   86 85                N/A
13E OREGON INLT  2200      84                N/A     2/ 8   2/ 8
HATTERAS CG      2200   85 83                N/A
DIAMOND BUOY     2250   85 85  230/ 12/ 14 1016.6    3/ 9   2/ 9
CAPE LOOKOUT     2300   85     210/  9/ 12 1016.4
BEAUFORT LAB     2200   87 85                N/A
30 SE NEW RVR IN 2308   85 85  210/ 12/ 14 1016.9
30 SE NEW RVR IN 2225      85                N/A     3/ 9
27 SE WRIGHTSVLE 2308   85 85  220/ 10/ 14 1017.0
5 SE WRIGHTSVLE  2308   85 84  220/ 14/ 17 1017.4
225 S CAPE HAT   2250   84 86  170/  4/  6 1018.0    2/ 8   2/ 8
41 SE CHARLESTON 2250   85 86  170/  8/ 10 1016.2    2/ 9   2/ 9

$$




USA.gov is the U.S. government's official web portal to all federal, state and local government web resources and services.